Back to catalog

HEBI-1

AliveScienceSSO
NORAD 56154·PAYLOAD·🇨🇳 China
This satellite name has not been confirmed by official sources yet.

Launched Mar 30, 2023 from Taiyuan Satellite Launch Center

Loading…

Next Passes (next 24 hours)

TLE

FreshSource: Space-Track

Epoch: Sep 14, 2026, 08:41 UTC

1 56154U 23047B   26257.36188135  .00002884  00000-0  16109-3 0  9996
2 56154  97.5007  83.2187 0001563  94.1455 265.9956 15.14308826191295

Track HEBI-1 in real time with AllMySat

Download on the App Store